DMSP 5D-2 F13 DEB

Satellite information

Favourite Embed

Satellite Type and Status

DEBRISIN ORBIT

Key statistics

Satellite DMSP 5D-2 F13 DEB at a glance.

Uptime

11004

Days in orbit

Revolutions

≈ 14.3

Per day

Orbit

SSO

Sun Synchronous Orbit

Inclination

98.7

Latest

Satellite identification and parameters

Extended collection of information and parameters for DMSP 5D-2 F13 DEB.

Object identification

Identified? True

Debris? True

Object name: DMSP 5D-2 F13 DEB

International designator: 1995-015Q

Object number (NORAD): 40403

Object ID (CCSDS): 40403

Country: UNITED STATES OF AMERICA (US)

Current information (Y/N): Y

RCS size: SMALL

Orbital parameters

Period: 100.769 minutes

Inclination: 98.6968 deg

SMA: 7173.188 km

Apoapsis: 805.261 km

Periapsis: 784.846 km

RAAN: 151.8881 deg

Eccentricy: 0.001423

Argument of periapsis: 126.5258 deg

Mean anomaly: 233.7236 deg

Mean motion: 14.29007173 rev/day

Mean motion (dot): 0.00002832 rev/day2

B* drag term: 0.0011354 1/REarth

Two-line elements (TLE)

Creation date: May 8, 2025, 10:46 p.m.

Reference frame: TEME

Reference center: EARTH

Epoch: May 8, 2025, 2:34 p.m. UTC

TLE line 0: 0 DMSP 5D-2 F13 DEB

TLE line 1: 1 40403U 95015Q 25128.60698930 .00002832 00000-0 11354-2 0 9991

TLE line 2: 2 40403 98.6968 151.8881 0014230 126.5258 233.7236 14.29007173530929

Live tracking on map

Real-time ground track for satellite DMSP 5D-2 F13 DEB.

In-orbit conjunctions

A list of the most updated potential collisions computed for object DMSP 5D-2 F13 DEB.

Target Orbit TCA Probability of collision Miss distance Type
CZ-6A DEB LEO 2025-04-15 07:30:58 0.000126821 166.0 (m) DEBRIS
FENGYUN 1C DEB SSO 2024-09-25 10:52:03 0.0008292261 841.0 (m) DEBRIS
COSMOS 2251 DEB LEO 2024-07-07 01:46:37 0.0002435309 33.0 (m) DEBRIS
REX 2 SSO 2024-06-01 04:29:39 0.0001254755 288.0 (m) PAYLOAD

Associated space launch

Military meteorological satellite

DMSP 5D-2 F13 DEB was lifted into orbit during the mission ‘Atlas E | DMSP-5D2 F13’, on board a Atlas E space rocket.

The launch took place on March 24, 1995, 2:05 p.m. from Space Launch Complex 3W.

For more information about the launch, click the button.

Launch to space Atlas E | DMSP-5D2 F13
Atlas E | DMSP-5D2 F13

Agency: N/A

Status: Launch Successful

Launch date: March 24, 1995, 2:05 p.m. UTC

Rocket: Atlas E

Launch pad: Space Launch Complex 3W

Location: Vandenberg SFB, CA, USA

...

Latest news about this satellite

There are no fresh news available about this satellite. Check back as we update our databases every day.


Newsletter sign-up

Weekly statistics, charts and insights to help you stay on top of the space industry.